Location: Unspecified
(35.6961°N, 0.0000°E)
Time: 23:31:17
(UTC+00:00)

Explorer 11/Cluster Stage 4 - Pass Details

Date: 27 May 2019
Orbit: 467 x 1260 km, 28.8° (Epoch: 19 June)

Event Time Altitude Azimuth Distance (km) Brightness Sun altitude
Rises 01:03:16 0° 232° (SW) 3,865 - -31.0°
Reaches altitude 10° 01:06:38 10° 221° (SW) 2,777 - -30.7°
Maximum altitude 01:12:09 28° 166° (SSE) 1,601 - -30.4°
Drops below altitude 10° 01:16:48 10° 109° (ESE) 2,300 - -30.0°
Exits shadow 01:17:10 - 107° (ESE) 2,410 9.1 -30.0°
Sets 01:19:19 0° 97° (E) 3,094 9.8 -29.8°
